Location: Boiro
(42.6475°N, 8.8834°W)
Time: 12:22:26
(UTC+01:00)

Vanguard 2 Rocket - Pass Details

Date: 14 December 2021
Orbit: 554 x 3325 km, 32.9° (Epoch: 19 January)

Event Time Altitude Azimuth Distance (km) Brightness Sun altitude
Rises 21:58:06 0° 256° (WSW) 3,470 10.6 -42.3°
Reaches altitude 10° 22:01:26 10° 233° (SW) 2,889 9.8 -42.9°
Enters shadow 22:04:15 15° 209° (SSW) 2,825 9.5 -43.4°
